Regional Weather Roundup
Issued by NWS

Home | Current Version | Previous Version | Graphics & Text | Print | Product List | Glossary On
Versions: 1 2 3 4 5 6 7 8 9 10 11 12 13 14 15 16 17 18 19 20 21 22 23 24 25 26 27 28 29 30 31 32 33 34 35 36 37 38 39 40 41 42 43 44 45 46 47 48 49 50
000
ASUS43 KMKX 250821
RWRWI

WISCONSIN REGIONAL WEATHER ROUNDUP
NATIONAL WEATHER SERVICE MILWAUKEE/SULLIVAN WI
300 AM CDT SUN SEP 25 2016

NOTE: "FAIR" INDICATES FEW OR NO CLOUDS BELOW 12,000 FEET WITH NO
SIGNIFICANT WEATHER AND/OR OBSTRUCTIONS TO VISIBILITY.

WIZ001-002-006>008-014>016-023>028-250900-
NORTHWEST WISCONSIN

CITY           SKY/WX    TMP DP  RH WIND       PRES   REMARKS
SUPERIOR ARPT  DRIZZLE   62  61  96 E3        29.96F
ASHLAND        PTCLDY    60  56  86 SE3       30.00F
HAYWARD        CLOUDY    62  58  86 S5        30.00F
SIREN          CLOUDY    65  60  85 S9        29.97S
CUMBERLAND     CLOUDY    61  59  94 S9        30.00S
RICE LAKE      CLOUDY    62  59  88 SE9G17    30.01F
CHETEK         NOT AVBL
LADYSMITH      CLOUDY    61  58  90 SE8       30.05F
EAU CLAIRE     CLOUDY    64  61  90 SE10      30.00F
MENOMONIE      CLOUDY    64  61  90 SE8       30.01R
NEW RICHMOND   CLOUDY    65  63  92 SE8       29.97F
OSCEOLA        CLOUDY    66  66 100 SE9       29.98F
$$

WIZ003>005-009-010-017-018-250900-
NORTH CENTRAL WISCONSIN

CITY           SKY/WX    TMP DP  RH WIND       PRES   REMARKS
MANITOWISH WTR NOT AVBL
ARBOR VITAE    CLOUDY    59  55  87 S9G16     30.09F
WOODRUFF       CLOUDY    59  55  87 S9G16     30.09F
RHINELANDER    CLOUDY    58  55  90 SE7       30.11F
EAGLE RIVER    CLOUDY    56  50  80 S5        30.10F
LAND O LAKES   CLOUDY    56  52  85 S5        30.12F
PHILLIPS       CLOUDY    59  57  94 SE6       30.05F
TOMAHAWK       CLOUDY    57  53  88 SE5       30.09F
MEDFORD        CLOUDY    57  57 100 SE9G16    30.07F
MERRILL        PTCLDY    56  55  95 SE7       30.11F
$$

WIZ029-030-035-036-043>047-250900-
CENTRAL WISCONSIN

CITY           SKY/WX    TMP DP  RH WIND       PRES   REMARKS
WAUSAU         PTCLDY    56  53  90 SE9       30.09F
MOSINEE        CLEAR     54  54 100 E7        30.11F
MARSHFIELD     PTCLDY    58  55  90 SE9       30.07F
STEVENS POINT  PTCLDY    55  55 100 E5        30.11F
WAUPACA        CLEAR     58  57  98 CALM      30.12F
WAUTOMA        CLOUDY    56  55  97 CALM      30.10F
WISC RAPIDS    MOCLDY    58  57  97 E6        30.10F
CAMP DOUGLAS   CLOUDY    61  59  94 E8        30.06F
$$

WIZ011>013-019>022-031-037>040-048>050-250900-
NORTHEAST WISCONSIN

CITY           SKY/WX    TMP DP  RH WIND       PRES   REMARKS
ANTIGO         MOCLDY    54  52  94 CALM      30.13F
SHAWANO        CLOUDY    61  56  83 CALM      30.12F
OCONTO         NOT AVBL
STURGEON BAY   MOCLDY    61  56  83 SE8       30.14F
GREEN BAY      CLOUDY    59  57  93 CALM      30.13F
MANITOWOC      CLEAR     63  57  81 MISG      30.14F
APPLETON       CLEAR     59  54  82 E3        30.10F
CLINTONVILLE   NOT AVBL
OSHKOSH        CLEAR     61  57  87 SE5       30.10F
$$

WIZ032>034-041-042-053>061-250900-
SOUTHWEST WISCONSIN

CITY           SKY/WX    TMP DP  RH WIND       PRES   REMARKS
LA CROSSE      PTCLDY    68  63  84 SE9       30.01F
SPARTA         CLOUDY    63  61  94 SE6       30.05F
VIROQUA        CLOUDY    63  63 100 SE9G16    30.05F
BOSCOBEL       CLOUDY    64  62  93 VRB3      30.05F FOG
PRAIRIE DU CHI CLOUDY    66  62  87 SE7       30.02F
PLATTEVILLE    CLOUDY    64  64 100 E10       30.05F
$$

WIZ056-057-062-063-064-067-068-250900-
SOUTH CENTRAL WISCONSIN

CITY           SKY/WX    TMP DP  RH WIND       PRES   REMARKS
REEDSBURG      NOT AVBL
BARABOO/DELLS  CLOUDY    63  60  90 SE6       30.07F
LONE ROCK      CLOUDY    63  61  93 E7        30.07F
MINERAL POINT  CLOUDY    64  64 100 E9        30.07F
MADISON        CLOUDY    61  60  97 SE6       30.08F
MIDDLETON      CLOUDY    63  63 100 SE5       30.09F
WATERTOWN      CLEAR     60  60 100 SE5       30.10F
MONROE         PTCLDY    61  61 100 E6        30.08F FOG
JANESVILLE     CLOUDY    63  63 100 E3        30.09F
$$

WIZ051-052-058>065-066-070>072-250900-
SOUTHEAST WISCONSIN

CITY           SKY/WX    TMP DP  RH WIND       PRES   REMARKS
MILWAUKEE      CLEAR     66  62  87 SE7       30.11F
WAUKESHA       CLEAR     61  59  94 SE3       30.13F
MILWAUKEE/TIMM CLEAR     64  57  77 SE5       30.12F
RACINE         CLEAR     68  62  81 SE7       30.13F
BURLINGTON     CLEAR     56  56  99 CALM      30.11F
KENOSHA        CLEAR     66  63  90 SE6       30.12F
FOND DU LAC    CLEAR     61  58  90 SE5       30.11F
SHEBOYGAN      MOCLDY    63  58  83 SE6       30.13F
WEST BEND      CLEAR     59  57  94 CALM      30.12F
JUNEAU         CLEAR     61  59  94 SE7       30.11F
$$

LSZ147-162-250900-
LAKE SUPERIOR

STATION/POSITION TIME  TEMP    WIND        PRES    WAVE
                       AIR SEA DIR/SP/G            HT/PER
                 (UTC) (F)     (DEG/KT/KT) (MB)    (FT/S)
W MID LAKE BUOY  0750   63 61  150/ 12/ 16 1016.4F   3/ 5
DEVILS ISLAND    0800   62     130/  6/  8 1015.9F
SAXON HARBOR     0740   62     210/  3/  7 1015.9F
$$

LMZ867-665-643>646-250900-
LAKE MICHIGAN

STATION/POSITION TIME  TEMP    WIND        PRES    WAVE
                       AIR SEA DIR/SP/G            HT/PER
                 (UTC) (F)     (DEG/KT/KT) (MB)    (FT/S)
CHAMBERS ISLAND  0700   62     140/  3/  7 1020.7S
S GREEN BAY BUOY 0800   63 66  130/ 12/ 14 1019.7F
N MID LAKE BUOY  0750   62 67  160/ 16/ 19 1020.6F   3/ 4
NORTHPORT PIER   0700   64     150/ 11/ 17 1021.0S
KEWAUNEE LAKESHO 0700   64     140/ 12/ 16 1020.5S
SHEBOYGAN LAKESH 0800   64     150/ 13/ 15 1019.7F
PORT WASHINGTON  0700   63      80/  1/  2 1021.0
ATWATER BUOY     0800   63 62  160/  4/  6 1019.8F
MILWAUKEE LAKESH 0710   64     130/  2/  3   N/A
S MID LAKE BUOY  0750   68 72  130/ 17/ 19 1019.7F   3/ 5
KENOSHA   LAKESH 0800   66     170/  8/  9 1019.3F
$$

TC  - TEMPERATURE IN CELSIUS
VSB - VISIBILITY IN STATUTE MILES
WCI - WIND CHILL INDEX
HX  - HEAT INDEX




USA.gov is the U.S. government's official web portal to all federal, state and local government web resources and services.